This demonstration page uses our WeatherBlox Daily Observations layout. Learn more.

Left ArrowRight Arrow

Hourly Observations for November 29, 2020

Temp ( °F °C ) Dew Point ( °F °C ) Humidity (%) Winds ( mph kmh ) Pressure ( in mb ) Visibility ( mi km ) Precip ( " mm )
12:51 am 00:51 Clear 36 2.2 21 -6.1 55 55 Calm 30.11 1020 10 16 0.00 0.00
1:51 am 01:51 Clear 33 0.6 19 -7.2 56 56 Calm 30.13 1020 10 16 0.00 0.00
2:51 am 02:51 Clear 32 0 18 -7.8 56 56 Calm 30.13 1020 10 16 0.00 0.00
3:51 am 03:51 Clear 29 -1.7 16 -8.9 58 58 N 8 13 30.14 1021 10 16 0.00 0.00
4:51 am 04:51 Clear 30 -1.1 15 -9.4 54 54 SSE 6 9 30.14 1021 10 16 0.00 0.00
5:51 am 05:51 Clear 29 -1.7 16 -8.9 58 58 SSE 3 6 30.17 1022 10 16 0.00 0.00
6:51 am 06:51 Clear 27 -2.8 15 -9.4 61 61 E 5 7 30.21 1023 10 16 0.00 0.00
7:51 am 07:51 Sunny 33 0.6 17 -8.3 52 52 SE 7 11 30.22 1023 10 16 0.00 0.00
8:51 am 08:51 Sunny 41 5 19 -7.2 41 41 SSE 9 15 30.23 1024 10 16 0.00 0.00
9:51 am 09:51 Sunny 50 10 19 -7.2 29 29 SE 15 24 30.22 1024 10 16 0.00 0.00
10:51 am 10:51 Sunny 53 11.7 22 -5.6 30 30 ESE 9 15 30.21 1023 10 16 0.00 0.00
11:51 am 11:51 Sunny 56 13.3 23 -5 28 28 SSE 5 7 30.18 1022 10 16 0.00 0.00
12:51 pm 12:51 Sunny 61 16.1 22 -5.6 22 22 SSE 8 13 30.15 1021 10 16 0.00 0.00
1:51 pm 13:51 Sunny 64 17.8 20 -6.7 18 18 S 8 13 30.13 1020 10 16 0.00 0.00
2:51 pm 14:51 Sunny 66 18.9 19 -7.2 16 16 VRB 7 11 30.11 1020 10 16 0.00 0.00
3:51 pm 15:51 Sunny 66 18.9 20 -6.7 17 17 SSE 8 13 30.11 1020 10 16 0.00 0.00
4:51 pm 16:51 Sunny 64 17.8 20 -6.7 18 18 SSE 6 9 30.13 1020 10 16 0.00 0.00
5:51 pm 17:51 Clear 54 12.2 18 -7.8 24 24 E 7 11 30.16 1021 10 16 0.00 0.00
6:51 pm 18:51 Clear 55 12.8 15 -9.4 20 20 ESE 8 13 30.19 1022 10 16 0.00 0.00
7:51 pm 19:51 Clear 56 13.3 17 -8.3 22 22 E 10 17 30.19 1023 10 16 0.00 0.00
8:51 pm 20:51 Clear 54 12.2 17 -8.3 23 23 ESE 8 13 30.21 1023 10 16 0.00 0.00
9:51 pm 21:51 Clear 50 10 16 -8.9 26 26 SE 8 13 30.22 1023 10 16 0.00 0.00
10:51 pm 22:51 Clear 45 7.2 16 -8.9 31 31 ESE 8 13 30.25 1024 10 16 0.00 0.00
11:51 pm 23:51 Clear 48 8.9 18 -7.8 30 30 E 12 19 30.25 1025 10 16 0.00 0.00

Powered by AerisWeather